Weather History for Cincinnati, OH

Change the Weather History Date:

Tuesday, April 2, 2013

  Actual Average Record
Temperature  
Mean Temperature 36 °F -  
Max Temperature 48 °F 60 °F 82 °F (1963)
Min Temperature 25 °F 40 °F 25 °F (1961)
Degree Days  
Heating Degree Days 28    
Moisture  
Dew Point 17 °F    
Average Humidity 47    
Maximum Humidity 81    
Minimum Humidity 25    
Precipitation  
Precipitation 0.00 in - - ()
Sea Level Pressure  
Sea Level Pressure 30.24 in    
Wind  
Wind Speed 6 mph (NW)    
Max Wind Speed 15 mph    
Max Gust Speed 22 mph    
Visibility 10 miles    
Events      
Averages and records for this station are not official NWS values.
T = Trace of Precipitation, MM = Missing Value Source: NWS Daily Summary

Daily Weather History Graph

Daily Weather History Graph

Search for Another Location

Airport:

Trip Planner

Search our weather history database for the weather conditions in past years. The results will help you decide how hot, cold, wet, or windy it might be!

Date:

Astronomy

Apr. 02, 2013 Rise Set
Actual Time 7:20 AM EDT 8:02 PM EDT
Civil Twilight 6:53 AM EDT 8:29 PM EDT
Nautical Twilight 6:21 AM EDT 9:01 PM EDT
Astronomical Twilight 5:48 AM EDT 9:34 PM EDT
Moon 2:04 AM EDT (4/2) 12:12 PM EDT (4/2)
Length of Visible Light 13h 36m
Length of Day
12h 42m
Waning Gibbous, 56% of the Moon is Illuminated
Apr 2
Waning Gibbous
Apr 3
Last Quarter
Apr 10
New
Apr 18
First Quarter
Apr 25
Full

Hourly Weather History & Observations

Time (EDT) Temp. Windchill Dew Point Humidity Pressure Visibility Wind Dir Wind Speed Gust Speed Precip Events Conditions
12:53 AM 37.0 °F 31.0 °F 16.0 °F 42% 30.15 in 10.0 mi NNW 8.1 mph - N/A   Clear
1:53 AM 35.1 °F 27.9 °F 18.0 °F 50% 30.18 in 10.0 mi North 9.2 mph - N/A   Clear
2:53 AM 32.0 °F 27.5 °F 17.1 °F 54% 30.18 in 10.0 mi North 4.6 mph - N/A   Clear
3:53 AM 30.0 °F 24.1 °F 17.1 °F 59% 30.19 in 10.0 mi North 5.8 mph - N/A   Clear
4:53 AM 27.0 °F - 19.9 °F 75% 30.20 in 10.0 mi Calm Calm - N/A   Clear
5:53 AM 25.0 °F - 19.0 °F 78% 30.22 in 10.0 mi Calm Calm - N/A   Clear
6:53 AM 26.1 °F - 19.9 °F 78% 30.25 in 10.0 mi Calm Calm - N/A   Clear
7:53 AM 26.1 °F - 21.0 °F 81% 30.27 in 10.0 mi Calm Calm - N/A   Clear
8:53 AM 30.9 °F - 24.1 °F 76% 30.29 in 10.0 mi Calm Calm - N/A   Clear
9:53 AM 36.0 °F - 19.9 °F 52% 30.29 in 10.0 mi Calm Calm - N/A   Clear
10:53 AM 39.0 °F 34.8 °F 17.1 °F 41% 30.30 in 10.0 mi SW 5.8 mph - N/A   Clear
11:53 AM 41.0 °F 34.7 °F 17.1 °F 38% 30.29 in 10.0 mi WSW 10.4 mph - N/A   Clear
12:53 PM 43.0 °F 37.2 °F 16.0 °F 34% 30.28 in 10.0 mi West 10.4 mph 16.1 mph N/A   Clear
1:53 PM 44.1 °F 41.5 °F 15.1 °F 31% 30.26 in 10.0 mi Variable 4.6 mph - N/A   Clear
2:53 PM 45.0 °F 40.6 °F 17.1 °F 33% 30.23 in 10.0 mi WNW 8.1 mph - N/A   Clear
3:53 PM 46.9 °F - 17.1 °F 30% 30.22 in 10.0 mi West 9.2 mph 21.9 mph N/A   Clear
4:53 PM 48.0 °F - 15.1 °F 27% 30.21 in 10.0 mi WNW 15.0 mph 19.6 mph N/A   Clear
5:53 PM 46.9 °F - 12.9 °F 25% 30.22 in 10.0 mi West 11.5 mph 19.6 mph N/A   Clear
6:53 PM 46.0 °F 41.9 °F 12.9 °F 26% 30.23 in 10.0 mi WNW 8.1 mph - N/A   Clear
7:53 PM 43.0 °F 37.2 °F 12.0 °F 28% 30.23 in 10.0 mi North 10.4 mph - N/A   Clear
8:53 PM 41.0 °F 37.1 °F 12.9 °F 32% 30.25 in 10.0 mi NNW 5.8 mph - N/A   Clear
9:53 PM 39.0 °F 34.0 °F 14.0 °F 36% 30.28 in 10.0 mi North 6.9 mph - N/A   Clear
10:53 PM 37.9 °F 33.5 °F 15.1 °F 39% 30.30 in 10.0 mi North 5.8 mph - N/A   Clear
11:53 PM 32.0 °F - 21.0 °F 64% 30.30 in 10.0 mi Calm Calm - N/A   Clear